Wind_Speed
2 2 3 4 4 5 7 10 10 9 11 13 15 16 15 17 20 19 20 21 22 23 24 23 23 24 24 24 24 25 26 27 28 28 28 28 27 27 27 27 27 27 26 26
4 3 4 6 8 9 9 10 10 10 12 13 15 16 15 16 19 20 21 21 21 21 22 22 23 23 23 23 24 25 26 27 28 28 27 27 27 27 27 27 25 24 25 26
4 6 8 8 9 10 10 10 9 11 12 12 13 15 16 17 19 20 22 22 23 22 23 23 22 23 23 23 24 25 26 27 27 27 27 27 27 27 26 26 26 26 26 26
5 8 8 7 8 10 9 9 11 12 12 13 13 14 17 18 19 21 21 22 23 23 24 24 24 24 24 24 25 26 26 27 27 27 27 28 27 26 26 27 26 26 26 26
6 8 7 6 8 9 10 10 11 11 10 11 11 15 19 19 20 21 22 22 23 25 25 25 24 24 24 25 25 26 26 27 26 26 26 26 26 26 25 26 26 25 25 26
7 8 8 8 8 10 11 11 10 10 10 11 12 15 19 19 20 21 23 23 26 26 26 26 25 25 26 27 27 26 26 26 25 25 25 26 26 26 25 25 26 25 26 26
8 9 10 10 11 11 10 11 11 9 10 11 12 15 19 21 22 23 24 25 27 26 26 25 26 26 27 27 27 27 26 25 25 25 25 25 25 24 24 25 26 26 26 25
7 8 10 11 11 11 11 11 11 12 12 12 12 15 20 22 23 23 24 26 26 26 26 26 26 27 27 27 27 26 25 25 25 25 25 25 24 24 24 25 25 26 26 24
7 7 9 10 9 11 12 12 12 13 13 13 13 15 20 23 23 23 25 26 27 27 27 27 26 26 26 26 25 25 25 25 25 24 24 24 23 23 24 24 25 24 23 23
11 10 9 10 10 11 12 13 14 13 13 14 13 16 21 24 26 27 26 26 28 28 27 27 27 26 25 25 25 25 25 24 24 23 23 23 23 22 23 22 22 21 21 21
11 11 10 9 10 11 14 14 15 15 15 16 18 19 22 24 26 27 27 27 27 27 27 25 26 26 25 24 25 25 23 23 22 22 21 21 21 21 21 21 21 21 21 20
12 12 11 11 11 11 14 15 16 18 18 19 21 21 23 26 27 28 28 27 27 27 27 26 25 24 24 24 24 23 22 22 21 20 20 19 19 19 20 20 20 21 21 20
14 14 13 12 12 13 15 16 17 19 20 23 22 23 25 27 30 30 29 27 26 27 26 25 24 24 24 24 23 21 21 20 20 20 20 19 19 19 19 19 19 20 19 19
15 15 15 15 14 16 17 17 18 20 21 23 24 25 27 29 29 29 29 28 27 26 25 24 24 24 24 23 22 20 20 20 20 19 19 18 18 19 18 18 19 19 19 20
17 16 16 16 16 18 19 19 20 21 23 25 26 27 28 29 29 29 28 28 26 25 24 23 24 24 22 21 21 20 19 20 19 18 18 18 18 18 17 18 18 19 19 20
18 18 17 17 17 18 20 20 20 21 23 24 26 27 28 28 27 27 27 26 24 23 23 23 23 22 20 20 20 19 18 18 18 18 17 17 17 16 16 17 18 18 19 20
19 19 20 19 20 20 21 20 20 21 22 25 26 27 27 26 26 27 26 25 24 24 24 23 21 21 20 19 19 19 18 18 17 17 17 16 16 15 15 16 16 17 18 20
20 20 21 21 22 22 21 20 21 21 23 24 25 26 26 25 25 26 26 25 24 24 23 22 20 19 18 18 19 18 18 17 16 16 16 15 14 14 15 15 16 17 18 19
21 20 21 21 22 22 22 22 21 22 24 25 25 25 25 24 25 26 26 25 23 23 22 20 19 18 18 18 18 18 17 16 16 15 13 13 12 13 14 15 15 16 18 18
23 23 23 22 22 23 23 22 22 24 26 25 25 25 25 25 25 25 25 24 22 22 21 20 19 19 17 16 16 16 16 16 14 13 11 10 11 12 14 14 15 16 16 17
25 25 24 23 23 24 25 24 24 25 26 25 25 25 26 26 25 25 25 24 23 22 21 20 18 17 16 15 15 15 15 14 12 11 9 9 10 11 12 13 14 15 16 16
25 25 25 25 25 26 26 27 26 26 25 24 25 26 26 26 25 25 24 23 21 20 20 18 16 15 14 14 13 12 11 11 10 8 7 7 9 11 11 12 13 15 15 16
26 25 26 25 25 26 27 28 27 27 26 25 25 25 26 25 25 24 22 21 20 19 19 17 15 13 12 10 10 9 9 8 6 5 5 7 9 10 11 12 13 14 15 16
27 27 27 27 26 26 27 27 28 26 24 24 25 24 25 25 24 23 21 19 18 17 16 15 13 12 9 8 8 8 7 6 5 5 5 6 8 9 10 12 13 14 15 16
27 28 28 27 27 26 26 25 25 24 23 24 23 24 24 23 22 20 19 17 16 14 14 14 12 9 8 7 7 6 5 5 5 5 6 7 8 9 10 12 13 14 16 17
27 27 28 27 27 26 25 24 23 23 22 22 22 22 21 20 19 18 16 15 14 12 11 11 10 8 7 6 6 4 4 4 4 5 5 7 8 9 10 11 13 15 16 17
Wind_Direction
28 1 315 280 265 259 250 243 248 257 265 271 274 277 280 286 286 290 290 290 292 293 294 296 297 297 293 293 293 293 293 294 294 293 293 294 294 295 297 297 297 297 296 298
354 324 272 258 258 263 262 265 264 261 263 271 277 284 292 291 286 291 291 291 292 294 295 298 298 296 296 294 292 292 291 292 293 293 293 292 293 295 297 297 296 297 298 300
307 276 269 262 265 272 275 270 273 276 278 284 290 293 294 290 289 289 291 294 297 298 300 301 301 297 297 296 294 294 292 293 291 291 289 288 291 294 295 296 297 299 300 301
287 283 277 274 277 275 274 275 277 279 280 278 279 284 288 283 286 288 292 295 298 297 298 300 300 299 298 296 295 294 293 293 292 292 288 289 291 291 292 295 297 299 301 301
293 286 283 271 271 275 274 272 279 284 287 290 282 280 282 281 282 293 298 298 298 298 299 300 299 299 299 297 295 294 293 292 294 295 294 294 292 292 293 296 298 298 301 303
288 287 286 283 283 281 284 285 289 289 286 279 274 273 276 280 291 299 300 298 299 299 301 302 299 297 298 298 297 298 297 295 295 295 295 295 293 292 293 295 298 298 301 302
309 306 306 307 296 289 290 290 287 282 275 268 278 281 280 288 297 301 300 299 302 302 302 302 301 299 298 298 298 299 297 296 294 293 294 294 293 293 293 294 297 299 302 302
307 304 304 304 299 296 292 299 296 290 286 282 288 284 286 291 298 301 300 299 301 303 302 299 299 300 299 298 299 297 296 295 294 293 293 293 296 296 296 296 299 299 301 301
296 282 291 298 303 303 311 305 299 295 290 283 280 285 288 295 296 299 300 300 302 303 302 300 299 300 300 299 299 297 296 295 294 294 294 297 299 299 299 299 301 301 302 304
308 301 300 302 312 312 307 308 304 299 297 294 292 286 286 296 299 300 301 302 303 302 301 300 299 300 300 301 300 300 300 297 298 299 296 297 299 301 301 299 300 303 305 307
309 310 307 307 311 303 301 303 299 299 299 295 297 295 297 297 301 302 303 303 304 304 303 302 302 300 300 302 303 302 303 301 299 298 300 300 301 301 301 299 301 305 308 307
308 305 301 303 307 304 301 298 297 301 303 301 301 300 303 304 304 304 303 305 306 305 305 303 303 302 301 303 303 302 302 301 301 300 302 302 302 303 302 301 302 304 306 306
308 307 304 305 304 303 301 302 299 298 302 303 302 302 301 301 301 302 303 303 305 304 302 302 303 303 302 303 303 302 300 299 300 301 301 300 300 301 302 301 302 305 309 312
307 307 307 307 304 302 301 299 299 298 298 298 298 298 297 301 303 304 306 306 304 302 302 302 302 302 301 302 301 299 297 297 299 299 298 299 298 298 300 303 305 308 311 313
306 304 304 306 305 302 299 297 298 298 298 299 302 300 300 304 306 308 309 309 306 303 303 303 301 300 301 301 300 300 298 296 297 300 299 299 299 299 303 306 307 309 311 313
309 306 304 304 303 303 301 301 300 299 301 301 301 302 304 303 305 308 310 310 308 307 305 304 302 300 301 300 300 302 299 302 300 299 299 300 299 301 304 306 308 310 312 315
308 307 305 304 303 302 304 307 304 303 305 304 304 306 308 309 311 310 310 309 308 309 306 305 303 303 302 300 300 299 301 302 303 300 298 301 300 303 307 307 309 311 314 318
305 307 307 307 309 307 308 306 303 304 305 304 306 308 309 311 314 313 311 311 311 310 309 310 309 305 304 303 302 302 303 305 301 302 300 300 302 306 308 310 311 314 317 319
303 304 305 307 310 311 309 307 307 306 306 308 310 312 311 312 313 313 314 315 315 312 310 311 309 306 304 302 300 302 304 303 302 301 303 302 304 309 313 315 316 319 321 323
304 304 303 305 307 308 308 307 306 307 307 311 309 310 311 312 312 314 315 314 314 313 312 310 307 305 305 303 300 299 304 304 299 302 303 302 307 314 318 320 322 324 325 326
303 306 305 306 306 305 307 308 307 306 309 310 310 310 309 309 312 314 314 314 314 314 312 310 311 310 308 307 302 298 302 304 301 303 303 305 314 320 323 324 326 329 330 331
300 302 303 303 304 303 304 305 304 304 307 309 310 310 310 309 309 312 312 311 313 313 311 310 312 313 310 309 306 306 307 305 305 307 310 316 323 327 330 332 332 333 336 337
294 297 299 299 299 302 301 301 301 301 303 305 306 308 309 309 310 310 311 311 310 313 314 315 314 317 314 314 315 317 319 316 313 316 318 321 325 329 331 334 337 340 342 343
292 295 296 296 294 296 297 297 299 299 300 302 305 307 308 309 310 310 311 310 310 312 316 317 317 320 317 315 319 324 328 327 323 325 325 327 331 332 336 341 344 345 348 349
290 293 295 295 297 295 294 296 296 296 299 300 303 305 305 308 309 311 312 313 312 311 313 314 316 317 311 313 320 328 336 341 341 345 343 340 339 343 347 349 349 351 352 352
288 290 292 294 295 293 296 298 296 295 297 299 302 304 303 303 305 309 311 312 312 311 309 311 314 316 313 313 319 325 334 345 351 358 357 355 354 353 352 353 354 357 356 354
Height
5857 5858 5858 5859 5859 5861 5861 5861 5861 5862 5863 5862 5862 5861 5861 5859 5857 5854 5853 5852 5851 5849 5846 5844 5842 5840 5839 5838 5836 5834 5833 5831 5830 5828 5826 5824 5823 5821 5819 5817 5815 5813 5811 5809
5858 5858 5859 5859 5859 5859 5859 5859 5859 5860 5860 5859 5859 5858 5857 5856 5853 5851 5850 5848 5847 5843 5841 5840 5838 5837 5835 5834 5832 5830 5828 5826 5824 5822 5820 5819 5817 5816 5814 5812 5810 5808 5805 5804
5859 5859 5857 5858 5858 5858 5857 5858 5858 5858 5857 5856 5856 5855 5855 5852 5850 5848 5846 5844 5841 5839 5838 5836 5834 5832 5831 5829 5827 5826 5824 5821 5819 5817 5815 5813 5811 5810 5809 5807 5805 5803 5801 5799
5858 5857 5856 5856 5857 5856 5855 5855 5855 5854 5854 5854 5855 5853 5851 5848 5847 5845 5842 5840 5838 5835 5833 5831 5830 5828 5826 5825 5823 5821 5818 5816 5814 5812 5810 5809 5807 5805 5804 5802 5800 5798 5796 5794
5857 5856 5855 5855 5854 5853 5853 5852 5852 5851 5851 5850 5851 5852 5849 5845 5843 5841 5839 5837 5834 5831 5829 5827 5825 5823 5821 5819 5817 5815 5813 5810 5809 5807 5805 5803 5802 5800 5798 5796 5794 5792 5790 5788
5855 5854 5852 5852 5851 5851 5850 5850 5850 5849 5849 5849 5849 5848 5845 5842 5840 5838 5836 5833 5830 5827 5824 5822 5820 5818 5816 5814 5812 5809 5807 5805 5803 5801 5799 5798 5796 5795 5793 5791 5789 5787 5785 5782
5854 5853 5850 5849 5850 5849 5848 5848 5847 5847 5847 5847 5846 5844 5841 5838 5837 5835 5832 5829 5826 5821 5820 5817 5815 5813 5810 5809 5807 5804 5802 5799 5797 5795 5794 5793 5791 5789 5787 5785 5783 5781 5779 5777
5853 5853 5850 5849 5848 5847 5846 5845 5845 5843 5843 5843 5842 5840 5837 5834 5832 5830 5828 5825 5821 5818 5815 5813 5810 5808 5805 5803 5801 5799 5796 5794 5792 5790 5789 5787 5785 5784 5782 5779 5777 5775 5774 5771
5849 5850 5848 5846 5846 5845 5843 5843 5842 5841 5840 5840 5839 5836 5832 5829 5827 5825 5823 5820 5817 5814 5811 5808 5805 5803 5800 5798 5796 5793 5791 5788 5786 5784 5783 5782 5780 5778 5776 5774 5771 5769 5767 5766
5847 5847 5846 5845 5844 5844 5843 5840 5839 5838 5836 5835 5835 5833 5829 5825 5823 5821 5818 5814 5812 5809 5805 5802 5800 5797 5795 5792 5790 5788 5785 5783 5781 5779 5778 5777 5775 5773 5771 5769 5767 5765 5762 5761
5845 5844 5844 5842 5841 5841 5840 5839 5836 5834 5833 5831 5829 5830 5824 5821 5819 5815 5812 5809 5806 5803 5800 5797 5794 5791 5789 5787 5785 5783 5781 5778 5776 5775 5773 5772 5770 5769 5767 5765 5763 5760 5758 5757
5843 5842 5841 5840 5838 5837 5837 5835 5834 5832 5830 5827 5825 5825 5820 5816 5812 5809 5806 5803 5800 5797 5794 5791 5787 5784 5782 5781 5780 5778 5776 5774 5772 5770 5769 5767 5766 5764 5762 5761 5759 5756 5754 5752
5841 5840 5839 5838 5838 5835 5833 5831 5830 5828 5826 5824 5821 5821 5814 5811 5807 5804 5801 5797 5793 5791 5788 5785 5782 5780 5778 5776 5774 5773 5771 5769 5767 5766 5764 5763 5762 5760 5758 5756 5754 5752 5750 5747
5839 5838 5837 5836 5833 5832 5830 5828 5827 5825 5822 5819 5817 5815 5810 5806 5802 5798 5795 5791 5787 5784 5782 5779 5777 5775 5773 5771 5769 5768 5766 5764 5763 5761 5759 5758 5757 5756 5754 5752 5750 5748 5746 5743
5836 5835 5833 5831 5829 5828 5826 5824 5822 5820 5817 5814 5812 5808 5804 5801 5796 5793 5789 5786 5782 5779 5776 5774 5772 5769 5767 5766 5765 5763 5761 5760 5758 5756 5755 5754 5753 5751 5750 5748 5746 5744 5742 5739
5832 5831 5829 5827 5825 5823 5821 5820 5817 5815 5812 5809 5806 5803 5799 5795 5791 5787 5783 5780 5777 5774 5771 5769 5766 5764 5762 5761 5759 5758 5757 5755 5753 5752 5751 5750 5749 5747 5746 5744 5742 5740 5738 5736
5828 5826 5824 5823 5821 5818 5816 5815 5812 5810 5807 5804 5801 5798 5794 5790 5786 5782 5778 5775 5771 5768 5766 5763 5761 5758 5757 5756 5755 5753 5752 5750 5749 5748 5747 5746 5745 5744 5742 5740 5739 5737 5735 5732
5824 5822 5820 5818 5816 5814 5814 5809 5807 5805 5802 5798 5795 5792 5789 5785 5781 5777 5773 5770 5766 5764 5761 5759 5756 5754 5753 5751 5750 5749 5748 5746 5745 5744 5743 5742 5741 5740 5739 5737 5735 5733 5731 5729
5819 5817 5815 5813 5811 5809 5807 5804 5801 5799 5796 5793 5790 5787 5784 5780 5777 5773 5769 5765 5761 5759 5757 5755 5753 5751 5749 5748 5746 5745 5744 5743 5742 5740 5739 5738 5738 5737 5736 5734 5732 5730 5728 5725
5814 5812 5810 5808 5806 5804 5802 5799 5796 5795 5791 5788 5784 5781 5778 5775 5772 5770 5765 5761 5757 5755 5753 5751 5749 5747 5745 5744 5743 5741 5740 5739 5738 5737 5736 5736 5735 5734 5733 5732 5729 5727 5725 5723
5809 5807 5804 5802 5801 5798 5796 5793 5792 5791 5787 5783 5779 5776 5773 5770 5768 5765 5761 5757 5754 5752 5750 5748 5746 5744 5742 5740 5739 5738 5737 5736 5735 5734 5734 5734 5733 5732 5731 5729 5727 5725 5723 5720
5804 5802 5800 5798 5796 5795 5790 5788 5786 5784 5780 5778 5775 5771 5768 5765 5763 5760 5756 5754 5751 5749 5747 5744 5742 5740 5739 5737 5736 5735 5734 5733 5732 5732 5732 5732 5732 5731 5729 5728 5725 5723 5720 5718
5799 5798 5795 5793 5792 5788 5784 5782 5779 5777 5775 5772 5770 5767 5764 5761 5758 5755 5752 5750 5748 5745 5743 5741 5739 5738 5736 5735 5734 5733 5732 5731 5731 5731 5731 5731 5730 5729 5728 5726 5724 5721 5719 5716
5792 5790 5788 5786 5785 5782 5779 5776 5773 5771 5769 5767 5764 5762 5759 5756 5753 5751 5748 5746 5744 5742 5741 5739 5737 5735 5734 5733 5732 5731 5731 5730 5730 5730 5730 5730 5729 5728 5727 5725 5723 5720 5717 5714
5786 5784 5781 5779 5778 5775 5772 5769 5767 5765 5763 5761 5759 5756 5753 5751 5749 5747 5745 5743 5741 5740 5738 5737 5735 5734 5733 5732 5731 5730 5730 5730 5730 5729 5729 5729 5728 5727 5726 5724 5722 5719 5716 5713
5779 5777 5775 5773 5771 5768 5766 5763 5761 5760 5758 5756 5753 5751 5749 5747 5745 5744 5742 5740 5738 5737 5736 5735 5733 5732 5732 5731 5730 5730 5730 5730 5730 5730 5729 5728 5728 5727 5725 5723 5721 5718 5716 5712